Wind_Speed
40 42 44 45 47 48 50 51 52 53 54 55 56 58 59 59 60 60 60 60 59 59 59 59 59 59 59 60 60 61 61 61 61 60 61 62 63 63 64 63 63 61 60
42 44 45 47 48 50 51 53 54 55 57 58 59 60 61 61 61 60 61 61 61 60 60 59 59 58 58 58 57 58 58 58 58 57 58 60 60 60 59 57 57 56 54
43 45 47 48 50 51 53 55 56 58 59 60 60 60 61 61 61 61 62 61 61 60 59 58 57 56 55 55 55 55 55 55 56 56 56 56 54 53 52 52 50 49 48
46 48 49 50 51 53 55 56 57 59 60 60 60 61 61 61 61 61 60 59 58 57 56 55 54 53 52 52 52 52 53 53 53 53 51 49 48 47 46 46 44 44 43
49 50 51 52 54 55 56 57 58 59 59 60 60 60 60 60 59 58 58 57 55 54 53 52 51 50 49 49 49 49 50 50 49 47 45 43 41 41 40 40 38 37 36
48 49 50 52 54 55 56 57 58 58 59 59 58 58 58 57 57 56 54 53 52 51 50 49 48 47 47 47 47 47 46 45 43 40 37 37 36 35 34 33 33 32 31
48 50 50 52 53 53 54 55 56 56 56 56 56 56 55 54 53 52 51 50 50 49 47 47 46 46 45 44 43 42 40 38 35 33 32 31 29 28 28 29 30 30 30
49 50 51 51 52 53 53 54 54 54 54 54 53 53 52 51 51 50 49 48 46 46 45 44 43 42 41 39 38 35 33 31 29 28 26 25 24 25 27 28 28 29 29
48 49 49 50 51 51 52 51 51 51 51 51 51 50 49 49 48 47 45 44 43 42 41 39 38 37 35 32 29 27 25 25 24 22 20 21 22 24 25 26 27 27 27
46 47 48 48 48 48 48 49 49 49 49 48 48 47 46 45 43 42 40 39 37 36 34 32 30 28 26 23 21 19 19 18 18 18 18 20 21 23 24 25 25 25 25
44 45 45 45 45 46 46 47 47 46 45 44 43 42 41 39 37 36 35 33 30 28 25 23 20 18 16 15 14 13 13 14 14 16 17 18 20 22 24 24 25 25 24
41 42 43 43 44 45 44 44 42 41 40 38 37 35 34 32 30 29 27 24 22 19 16 13 11 10 9 9 9 9 10 11 13 14 16 17 19 21 22 23 23 23 23
39 40 41 42 42 41 40 38 35 34 32 30 29 27 26 24 22 19 17 15 13 10 8 6 5 4 4 5 6 8 9 11 12 14 15 17 18 20 21 21 22 22 22
37 38 37 37 36 34 31 29 27 26 24 23 21 20 19 16 14 11 9 7 6 4 2 2 2 3 4 4 6 8 10 11 12 14 15 17 18 20 20 21 21 21 21
33 33 33 31 29 26 24 22 20 19 18 17 16 14 12 10 8 6 4 4 3 4 4 4 4 5 6 7 8 10 11 12 13 15 16 17 19 19 20 20 21 21 21
30 30 28 25 22 19 17 16 16 15 14 13 12 10 9 8 7 6 6 6 6 6 7 7 8 9 9 10 10 11 11 13 14 15 17 18 19 19 19 20 20 21 21
26 24 22 20 18 15 13 12 12 12 12 11 11 10 9 8 8 8 8 8 8 9 9 10 11 11 12 12 12 12 13 14 15 16 18 19 19 20 20 20 20 21 21
22 20 18 17 16 14 13 12 11 11 10 11 11 10 10 10 10 10 10 10 10 11 12 12 13 13 13 14 14 14 14 15 15 17 18 19 20 20 20 20 20 21 21
18 17 17 16 15 13 12 11 11 11 11 11 11 11 11 11 11 11 11 11 12 13 13 13 14 14 14 14 14 15 15 16 16 17 18 19 19 20 20 20 20 20 21
16 16 15 15 14 13 12 11 11 12 11 11 11 11 11 11 11 12 12 13 13 14 14 14 14 15 14 14 15 15 15 16 17 18 19 19 20 20 21 21 21 20 20
15 14 14 13 13 13 12 12 11 12 12 12 12 12 12 12 12 12 13 13 13 13 14 14 14 14 13 13 14 14 15 15 16 17 19 19 20 20 20 20 20 20 20
14 13 13 12 12 12 11 11 10 11 11 11 11 11 12 12 12 12 12 12 12 12 12 12 13 13 12 12 13 13 14 15 16 17 19 20 20 21 20 20 20 20 19
13 13 12 12 11 11 10 9 9 10 10 10 11 11 11 11 11 11 11 11 11 11 11 11 11 11 11 11 12 13 13 14 15 17 18 19 20 21 21 21 20 20 20
13 12 12 11 10 10 9 9 9 9 9 9 10 10 10 10 10 10 10 10 10 9 10 10 10 10 10 11 11 12 13 14 15 16 18 18 19 20 21 21 21 21 21
13 13 12 11 10 10 9 8 8 8 9 9 9 9 9 9 9 9 9 9 9 9 9 9 9 10 10 11 11 12 13 14 15 16 17 18 18 19 21 21 21 21 21
14 14 13 12 11 10 9 8 7 7 8 8 8 8 8 8 8 8 8 8 8 8 8 9 9 9 10 11 12 13 13 14 15 16 17 17 18 20 21 21 22 22 22
Wind_Direction
269 271 272 274 276 277 279 280 282 284 285 287 289 289 290 291 292 293 294 295 294 294 294 293 292 290 290 289 288 288 288 288 288 288 288 288 288 288 288 288 288 288 287
271 273 273 274 275 277 278 280 282 283 285 287 288 289 290 291 292 293 294 294 294 294 293 292 292 291 290 290 289 289 289 289 289 289 289 289 289 289 289 289 289 289 288
273 274 275 275 276 278 280 282 283 284 286 287 289 290 291 292 293 293 293 294 294 294 293 293 293 292 292 291 291 290 291 291 291 291 291 291 291 290 290 290 290 291 291
273 274 275 277 279 280 282 283 284 285 287 289 290 291 291 292 293 293 293 293 294 294 294 293 293 293 293 292 292 292 292 292 293 293 293 293 293 292 292 293 293 294 294
276 276 278 280 282 282 284 285 286 288 289 290 290 291 291 292 292 293 293 293 293 294 294 293 293 293 293 293 293 293 294 294 295 295 296 295 295 295 296 297 298 298 297
279 280 281 283 284 285 286 288 289 290 290 290 290 291 292 292 292 293 293 293 293 293 293 293 293 293 293 294 294 294 295 296 297 298 298 298 298 299 301 303 304 304 302
283 284 286 288 289 290 290 291 291 291 291 291 292 292 293 293 293 293 293 293 293 293 293 293 293 293 294 294 295 296 297 297 298 300 300 301 302 304 306 308 309 310 310
289 290 290 291 291 292 292 292 292 292 293 293 293 294 294 294 294 293 293 293 293 292 292 292 293 293 294 294 295 296 298 299 302 304 305 307 309 311 313 314 314 315 314
292 292 293 293 293 294 294 294 294 294 295 295 295 295 295 294 294 294 293 293 292 292 292 292 292 292 293 294 295 297 300 302 306 309 311 314 317 318 319 320 320 320 319
295 296 296 296 296 296 296 296 296 296 296 296 296 296 296 296 296 295 295 295 294 293 293 292 292 291 292 293 296 299 303 308 312 316 320 321 323 325 328 328 328 327 327
299 299 299 299 299 299 299 299 298 298 298 298 298 298 298 297 297 296 296 295 294 293 293 292 291 290 291 295 300 305 312 318 322 325 327 330 333 334 336 337 337 337 337
302 302 303 302 302 302 302 302 302 302 301 302 301 301 300 299 298 297 297 296 296 296 294 292 290 291 295 302 311 319 327 332 336 338 340 342 343 343 344 345 346 347 347
306 307 306 306 306 306 306 306 305 305 306 306 306 306 306 305 303 301 301 301 300 299 298 296 299 309 321 331 339 343 348 352 354 355 355 354 353 353 355 356 357 357 358
311 311 311 311 311 311 311 310 310 311 312 313 314 315 315 314 313 313 313 314 317 326 344 6 14 17 20 17 13 12 11 10 9 7 6 4 4 4 5 5 5 5 6
317 318 318 318 318 317 317 317 318 319 321 323 325 328 332 336 341 351 1 17 45 62 61 59 60 59 51 42 36 29 25 23 19 16 14 11 10 11 11 12 13 14 15
324 324 325 325 326 327 327 327 330 333 336 339 344 351 360 11 24 39 52 65 73 72 70 71 71 68 61 56 49 43 36 30 24 21 19 17 17 17 18 19 20 21 21
334 335 337 339 341 343 344 344 346 350 353 359 5 13 23 35 47 60 69 75 77 78 79 78 76 73 68 63 58 50 42 36 32 30 28 26 25 25 26 25 25 25 25
344 347 349 352 356 359 1 2 4 8 10 13 21 30 42 53 64 69 73 77 81 84 84 82 78 75 72 68 62 54 47 42 39 35 32 30 29 29 28 27 27 28 29
353 357 360 4 8 11 12 14 19 24 28 32 39 46 55 63 68 71 76 81 85 86 85 83 80 77 75 71 65 59 52 47 44 40 35 32 30 29 29 29 28 29 30
359 4 8 12 16 21 26 28 30 34 38 43 48 54 61 66 71 76 79 84 86 85 85 83 81 79 76 72 67 61 55 50 46 42 37 33 30 29 27 28 29 29 29
8 11 14 17 21 25 29 33 35 39 44 49 53 58 63 70 75 79 82 85 85 85 84 82 80 79 76 71 66 61 55 49 44 41 36 31 28 26 25 25 26 27 29
9 14 15 16 19 22 27 33 39 43 48 52 56 62 68 73 76 80 85 87 85 84 83 81 78 76 73 68 62 57 52 47 43 40 36 31 28 25 24 24 25 27 29
11 15 15 16 19 24 30 36 41 46 49 53 59 65 70 74 77 81 86 88 86 83 81 79 76 73 70 64 57 52 49 46 43 40 34 30 28 27 26 26 27 28 30
14 15 16 19 23 27 33 40 44 48 52 57 62 67 71 74 78 82 87 87 87 84 81 78 74 70 64 58 53 50 47 44 41 39 35 31 29 30 30 31 32 33 34
19 21 22 24 26 29 35 41 46 50 55 59 63 68 73 76 79 83 86 86 85 83 80 77 73 67 61 56 52 48 43 41 41 39 38 35 35 37 37 37 37 38 39
29 29 30 30 30 32 37 43 49 52 57 62 66 71 75 78 80 84 86 85 83 81 77 73 69 64 59 55 51 47 44 44 45 44 43 44 44 43 43 42 42 43 45
Height
5796 5795 5794 5792 5790 5787 5785 5782 5779 5775 5772 5769 5766 5762 5758 5754 5750 5745 5741 5737 5732 5727 5722 5717 5713 5707 5702 5697 5691 5686 5680 5675 5672 5668 5661 5654 5649 5643 5637 5631 5626 5621 5617
5787 5785 5783 5781 5779 5776 5773 5770 5767 5763 5760 5756 5752 5748 5744 5739 5735 5730 5725 5721 5716 5712 5707 5702 5697 5692 5686 5681 5676 5670 5665 5659 5655 5652 5646 5639 5633 5627 5621 5615 5610 5605 5601
5777 5775 5772 5770 5767 5764 5761 5758 5754 5750 5746 5742 5737 5733 5728 5724 5720 5715 5710 5705 5700 5695 5691 5686 5681 5676 5671 5666 5661 5656 5651 5645 5640 5635 5630 5624 5618 5612 5606 5601 5596 5591 5586
5766 5763 5760 5758 5755 5752 5748 5744 5740 5736 5732 5727 5723 5718 5713 5709 5704 5699 5694 5690 5685 5680 5675 5671 5666 5662 5657 5652 5647 5642 5637 5632 5626 5621 5615 5610 5604 5598 5593 5588 5584 5578 5573
5754 5751 5748 5745 5741 5738 5734 5730 5726 5721 5717 5712 5708 5703 5698 5693 5688 5683 5679 5675 5670 5666 5661 5656 5652 5648 5644 5639 5634 5629 5624 5618 5613 5608 5603 5598 5592 5587 5582 5577 5572 5568 5563
5741 5738 5735 5732 5728 5724 5720 5715 5711 5706 5702 5697 5692 5687 5682 5677 5673 5668 5664 5660 5655 5651 5647 5643 5639 5635 5631 5626 5621 5616 5611 5606 5602 5597 5592 5587 5583 5578 5573 5568 5563 5559 5555
5729 5725 5722 5718 5714 5710 5705 5701 5696 5691 5686 5681 5677 5672 5668 5662 5657 5653 5649 5645 5641 5637 5634 5630 5626 5622 5619 5614 5610 5605 5601 5596 5592 5588 5584 5579 5575 5571 5566 5561 5556 5551 5546
5716 5713 5709 5704 5700 5695 5691 5686 5681 5676 5671 5667 5662 5657 5653 5648 5643 5639 5635 5631 5627 5624 5621 5617 5614 5610 5607 5603 5599 5596 5592 5588 5585 5581 5577 5573 5569 5564 5560 5555 5550 5545 5539
5705 5701 5696 5691 5686 5681 5676 5671 5666 5662 5657 5652 5647 5643 5639 5634 5629 5625 5621 5618 5614 5611 5608 5605 5602 5599 5596 5593 5591 5588 5585 5582 5579 5575 5572 5568 5564 5559 5555 5549 5544 5539 5533
5692 5688 5683 5678 5673 5668 5663 5658 5653 5648 5643 5638 5633 5629 5624 5620 5616 5612 5608 5605 5602 5599 5597 5594 5593 5590 5588 5586 5585 5583 5581 5578 5575 5572 5568 5565 5560 5556 5550 5545 5539 5533 5528
5681 5676 5671 5666 5661 5656 5650 5645 5640 5634 5630 5625 5621 5616 5612 5608 5604 5601 5598 5595 5592 5590 5588 5587 5585 5584 5583 5582 5581 5579 5577 5575 5572 5569 5566 5562 5557 5552 5547 5541 5535 5529 5524
5670 5665 5660 5654 5649 5643 5637 5632 5627 5622 5618 5613 5609 5605 5601 5598 5594 5591 5589 5587 5585 5584 5583 5582 5581 5580 5580 5579 5578 5577 5575 5573 5570 5567 5563 5559 5555 5550 5545 5539 5533 5527 5521
5661 5655 5649 5643 5637 5631 5626 5621 5616 5611 5608 5604 5600 5596 5593 5590 5587 5585 5583 5581 5580 5580 5579 5579 5579 5579 5578 5578 5577 5576 5574 5572 5569 5566 5562 5558 5554 5549 5544 5538 5533 5527 5521
5652 5646 5640 5634 5628 5622 5617 5612 5608 5604 5601 5597 5594 5591 5588 5585 5583 5581 5580 5579 5579 5579 5578 5579 5579 5578 5578 5577 5577 5575 5573 5571 5569 5566 5562 5558 5554 5549 5544 5539 5533 5528 5522
5644 5638 5632 5626 5621 5616 5611 5607 5603 5600 5597 5594 5591 5588 5586 5584 5582 5580 5579 5579 5579 5579 5579 5579 5579 5579 5579 5578 5577 5575 5574 5572 5569 5566 5563 5559 5554 5550 5545 5540 5535 5529 5524
5638 5632 5626 5621 5616 5612 5608 5604 5601 5598 5595 5593 5590 5588 5586 5584 5582 5582 5581 5581 5581 5581 5581 5581 5581 5580 5580 5579 5578 5577 5575 5573 5570 5567 5564 5560 5556 5551 5546 5542 5537 5532 5527
5634 5628 5622 5618 5613 5609 5606 5603 5600 5598 5595 5593 5591 5589 5587 5585 5584 5584 5583 5583 5583 5583 5583 5583 5583 5583 5582 5581 5580 5579 5577 5575 5572 5569 5565 5562 5557 5553 5549 5544 5540 5535 5530
5631 5626 5621 5617 5613 5609 5606 5604 5601 5599 5597 5594 5592 5591 5589 5588 5587 5587 5586 5586 5586 5586 5586 5586 5586 5585 5585 5584 5583 5581 5579 5577 5574 5571 5568 5564 5560 5556 5552 5547 5543 5538 5533
5631 5626 5622 5618 5614 5611 5608 5605 5603 5601 5599 5597 5595 5594 5592 5592 5591 5590 5590 5590 5590 5590 5590 5590 5589 5589 5588 5587 5586 5584 5582 5580 5577 5574 5571 5567 5563 5559 5555 5551 5546 5541 5537
5631 5627 5623 5619 5616 5613 5610 5608 5606 5603 5601 5600 5598 5597 5596 5595 5595 5594 5594 5594 5594 5594 5594 5593 5593 5592 5592 5591 5589 5587 5585 5583 5580 5577 5574 5571 5567 5563 5559 5554 5550 5545 5541
5632 5628 5625 5621 5618 5616 5613 5611 5609 5607 5605 5603 5602 5601 5600 5599 5599 5598 5598 5598 5598 5598 5598 5597 5597 5596 5595 5594 5593 5591 5589 5587 5584 5581 5577 5574 5570 5566 5562 5558 5554 5549 5545
5633 5629 5626 5623 5621 5618 5616 5614 5612 5610 5609 5607 5606 5605 5604 5603 5603 5602 5602 5602 5602 5602 5602 5601 5601 5600 5599 5598 5596 5594 5592 5590 5587 5584 5581 5577 5574 5570 5566 5561 5557 5553 5549
5634 5631 5628 5625 5622 5620 5618 5617 5615 5614 5612 5611 5609 5608 5608 5607 5607 5606 5606 5606 5606 5605 5605 5605 5604 5603 5602 5601 5600 5598 5596 5593 5590 5587 5584 5581 5578 5574 5570 5565 5561 5557 5553
5635 5632 5629 5626 5624 5622 5620 5619 5618 5616 5615 5614 5613 5612 5611 5611 5610 5610 5610 5609 5609 5609 5608 5608 5607 5607 5606 5604 5603 5601 5599 5596 5593 5591 5588 5585 5581 5578 5574 5570 5566 5561 5558
5636 5633 5630 5628 5626 5624 5623 5621 5620 5619 5618 5617 5616 5615 5615 5614 5614 5613 5613 5613 5612 5612 5612 5611 5610 5610 5609 5607 5606 5604 5602 5599 5597 5594 5591 5589 5585 5582 5578 5574 5570 5566 5563
5638 5635 5633 5630 5628 5626 5625 5624 5622 5621 5620 5620 5619 5618 5618 5617 5617 5616 5616 5616 5615 5615 5615 5614 5613 5612 5611 5610 5609 5607 5605 5603 5600 5598 5595 5593 5590 5586 5583 5579 5575 5572 5568